Regional Weather Roundup
Issued by NWS Binghamton, NY

Home | Current Version | Previous Version | Text Only | Print | Product List | Glossary On
Versions: 1 2 3 4 5 6 7 8 9 10 11 12 13 14 15 16 17 18 19 20 21 22 23 24 25 26 27 28 29 30 31 32 33 34 35 36 37 38 39 40 41 42 43 44 45 46 47 48 49 50
000
ASUS41 KBGM 282210
RWRBGM

REGIONAL WEATHER ROUNDUP
NATIONAL WEATHER SERVICE BINGHAMTON NY
600 PM EDT TUE MAR 28 2017

Note: "fair" indicates few or no clouds below 12,000 feet with no
significant weather and/or obstructions to visibility.

* = Station(s) that does not report precipitation, such as rain,
snow, etc, also no thunder or fog.

NYZ009-015>018-022>025-036-037-044>046-055>057-062-282300
...Central New York...

CITY           SKY/WX    TMP DP  RH WIND       PRES   REMARKS
Binghamton     LGT RAIN  47  47 100 N13       29.89R VSB 3/4
Cortland       CLOUDY    46  45  93 N5        29.94R
Dansville      CLOUDY    45  43  93 NW9       30.00R FOG
Elmira         CLOUDY    48  44  86 NE10      29.94R
Seneca Falls   CLOUDY    43  43 100 N15       30.01R
Ithaca         LGT RAIN  43  43 100 W10       29.96R VSB 1/4
Hamilton       CLOUDY    46  45  93 N6        29.92R
Monticello     CLOUDY    43  43 100 S6        29.89R
Norwich        CLOUDY    46  46 100 N6        29.92R FOG
Oneonta        FOG       46  45  93 N3        29.89R VSB 0
Penn Yan       CLOUDY    45  40  82 N8        29.99R
Rome           CLOUDY    46  43  89 VRB7      29.94R
Sidney         FOG       45  45 100 CALM      29.90R VSB 1/4
Syracuse       CLOUDY    43  41  93 W10       29.96R
$$

PAZ038>040-043-044-047-048-072-282300
...Northeast Pennsylvania...

CITY           SKY/WX    TMP DP  RH WIND       PRES   REMARKS
Hazleton       RAIN      52  50  93 NW3       29.90R VSB 1/4
Scranton       LGT RAIN  50  48  93 E6        29.87R FOG
$$
&&
KEY
WCI = Wind Chill Index
VSB = Visibility
HX  = Heat Index
$$



USA.gov is the U.S. government's official web portal to all federal, state and local government web resources and services.